This demonstration page uses our WeatherBlox Daily Observations layout. Learn more.

Left ArrowRight Arrow

Hourly Observations for June 29, 2021

Temp ( °F °C ) Dew Point ( °F °C ) Humidity (%) Winds ( mph kmh ) Pressure ( in mb ) Visibility ( mi km ) Precip ( " mm )
12:59 am 00:59 Clear 78 25.6 72 22.2 82 82 S 6 9 30.29 1026 10 16 0.00 0.00
1:59 am 01:59 Clear 78 25.6 72 22.2 82 82 SSW 7 11 30.29 1026 10 16 0.00 0.00
2:59 am 02:59 Mostly Clear 77 25 72 22.2 85 85 SSW 6 9 30.28 1026 10 16 0.00 0.00
3:59 am 03:59 Clear 76 24.4 72 22.2 88 88 SSW 3 6 30.29 1026 9 14 0.00 0.00
4:59 am 04:59 Clear 76 24.4 72 22.2 88 88 Calm 30.30 1026 8 13 0.00 0.00
5:59 am 05:59 Sunny 75 23.9 72 22.2 90 90 Calm 30.31 1026 7 11 0.00 0.00
6:25 am 06:25 Partly Cloudy 76 24.4 73 22.8 91 91 S 3 6 30.32 1027 7 11 0.00 0.00
6:59 am 06:59 Mostly Sunny 77 25 73 22.8 88 88 SSW 5 7 30.32 1027 8 13 0.00 0.00
7:39 am 07:39 Mostly Sunny 79 26.1 74 23.3 85 85 SSW 6 9 30.32 1027 8 13 0.00 0.00
7:59 am 07:59 Sunny 79 26.1 74 23.3 85 85 SW 7 11 30.32 1027 9 14 0.00 0.00
8:59 am 08:59 Mostly Cloudy 82 27.8 73 22.8 74 74 WSW 6 9 30.33 1027 10 16 0.00 0.00
9:52 am 09:52 Mostly Cloudy 83 28.3 73 22.8 72 72 VRB 6 9 30.32 1027 10 16 0.00 0.00
9:59 am 09:59 Mostly Cloudy 84 28.9 73 22.8 70 70 SW 6 9 30.32 1027 10 16 0.00 0.00
10:59 am 10:59 Mostly Cloudy 85 29.4 72 22.2 65 65 SSW 8 13 30.31 1027 10 16 0.00 0.00
11:59 am 11:59 Mostly Cloudy 87 30.6 72 22.2 61 61 SW 9 15 30.30 1026 10 16 0.00 0.00
12:59 pm 12:59 Mostly Cloudy 88 31.1 72 22.2 59 59 SSW 8 13 30.29 1026 10 16 0.00 0.00
1:59 pm 13:59 Mostly Cloudy 87 30.6 75 23.9 67 67 E 7 11 30.27 1025 10 16 0.00 0.00
2:59 pm 14:59 Mostly Cloudy 87 30.6 74 23.3 65 65 VRB 6 9 30.26 1025 10 16 0.00 0.00
3:59 pm 15:59 Mostly Cloudy 89 31.7 73 22.8 59 59 VRB 3 6 30.25 1024 10 16 0.00 0.00
4:59 pm 16:59 Mostly Cloudy 91 32.8 70 21.1 50 50 S 7 11 30.23 1024 10 16 0.00 0.00
5:59 pm 17:59 Mostly Cloudy 90 32.2 70 21.1 52 52 VRB 6 9 30.21 1023 10 16 0.00 0.00
6:59 pm 18:59 Partly Cloudy 87 30.6 73 22.8 63 63 ESE 5 7 30.21 1023 10 16 0.00 0.00
7:59 pm 19:59 Partly Cloudy 86 30 72 22.2 63 63 SSW 8 13 30.20 1023 10 16 0.00 0.00
8:59 pm 20:59 Partly Cloudy 84 28.9 73 22.8 70 70 SSW 9 15 30.21 1023 10 16 0.00 0.00
9:59 pm 21:59 Partly Cloudy 83 28.3 73 22.8 72 72 S 5 7 30.22 1023 10 16 0.00 0.00
10:59 pm 22:59 Clear 82 27.8 72 22.2 72 72 SSW 9 15 30.23 1024 10 16 0.00 0.00
11:59 pm 23:59 Clear 81 27.2 73 22.8 77 77 SSW 13 20 30.23 1024 10 16 0.00 0.00

Powered by AerisWeather